ANA1277 RJFF-RJCC

Flight info

Callsign ANA1277
Flight time 1h 45m
Altitude 37000
Route RJFF/34R YOKAT6 BUTUR Y453 MARCO Y141 SAMON Y14 GOLDO Y19 MRE Y13 SIRAO Y139 NAVER YOTEIS RJCC/01R
Aircraft B77W/H-VGDW/C

Departure

Time 2026-05-09 07:07
Airport Fukuoka Airport (RJFF)

Arrival

Time 2026-05-09 08:53
Airport New Chitose Airport (RJCC)
Time Latitude Longitude Altitude Speed Heading
2026-05-09 06:24 33.59780 130.44685 30 ft 0 kts 62°
2026-05-09 06:26 33.59779 130.44685 30 ft 0 kts 62°
2026-05-09 06:35 33.59779 130.44684 30 ft 0 kts 62°
2026-05-09 06:47 33.59779 130.44683 29 ft 0 kts 62°
2026-05-09 06:53 33.59778 130.44681 30 ft 0 kts 62°
2026-05-09 06:53 33.59777 130.44680 30 ft 1 kts 62°
2026-05-09 06:54 33.59773 130.44671 29 ft 2 kts 63°
2026-05-09 06:54 33.59768 130.44659 29 ft 2 kts 64°
2026-05-09 06:54 33.59763 130.44646 28 ft 2 kts 65°
2026-05-09 06:54 33.59757 130.44632 29 ft 2 kts 75°
2026-05-09 06:55 33.59756 130.44614 29 ft 2 kts 107°
2026-05-09 06:55 33.59761 130.44600 28 ft 1 kts 141°
2026-05-09 06:55 33.59763 130.44598 28 ft 0 kts 147°
2026-05-09 06:57 33.59742 130.44614 28 ft 7 kts 149°
2026-05-09 06:57 33.59699 130.44644 30 ft 7 kts 150°
2026-05-09 06:57 33.59657 130.44673 30 ft 7 kts 150°
2026-05-09 06:57 33.59601 130.44711 30 ft 10 kts 150°
2026-05-09 06:58 33.59538 130.44754 30 ft 11 kts 152°
2026-05-09 06:58 33.59461 130.44803 29 ft 14 kts 152°
2026-05-09 06:58 33.59367 130.44847 29 ft 15 kts 171°
2026-05-09 06:58 33.59263 130.44854 30 ft 15 kts 170°
2026-05-09 06:59 33.59165 130.44909 29 ft 18 kts 151°
2026-05-09 06:59 33.59014 130.45008 33 ft 34 kts 151°
2026-05-09 06:59 33.58788 130.45163 38 ft 27 kts 150°
2026-05-09 06:59 33.58685 130.45234 40 ft 12 kts 150°
2026-05-09 07:00 33.58595 130.45296 39 ft 14 kts 150°
2026-05-09 07:00 33.58534 130.45338 39 ft 10 kts 150°
2026-05-09 07:00 33.58461 130.45387 40 ft 16 kts 150°
2026-05-09 07:00 33.58368 130.45450 38 ft 12 kts 151°
2026-05-09 07:01 33.58296 130.45500 38 ft 11 kts 149°
2026-05-09 07:01 33.58229 130.45547 40 ft 11 kts 150°
2026-05-09 07:01 33.58161 130.45592 41 ft 13 kts 152°
2026-05-09 07:01 33.58016 130.45692 44 ft 34 kts 149°
2026-05-09 07:02 33.57886 130.45783 48 ft 16 kts 150°
2026-05-09 07:02 33.57779 130.45854 47 ft 18 kts 152°
2026-05-09 07:02 33.57684 130.45919 46 ft 16 kts 149°
2026-05-09 07:02 33.57621 130.45951 49 ft 0 kts 173°
2026-05-09 07:03 33.57620 130.45951 49 ft 2 kts 173°
2026-05-09 07:03 33.57559 130.45914 49 ft 3 kts 234°
2026-05-09 07:05 33.57540 130.45875 49 ft 17 kts 244°
2026-05-09 07:05 33.57574 130.45763 49 ft 0 kts 322°
2026-05-09 07:07 33.57581 130.45756 49 ft 14 kts 324°
2026-05-09 07:07 33.57971 130.45489 45 ft 115 kts 331°
2026-05-09 07:07 33.58958 130.44837 115 ft 201 kts 331°
2026-05-09 07:07 33.60184 130.43976 1286 ft 204 kts 330°
2026-05-09 07:08 33.61452 130.43103 1954 ft 216 kts 331°
2026-05-09 07:08 33.62831 130.42164 2157 ft 237 kts 330°
2026-05-09 07:08 33.64395 130.41412 2584 ft 251 kts 355°
2026-05-09 07:08 33.66127 130.41770 3174 ft 261 kts 28°
2026-05-09 07:09 33.67456 130.43251 3819 ft 266 kts 58°
2026-05-09 07:09 33.68382 130.45210 4364 ft 274 kts 62°
2026-05-09 07:09 33.68998 130.47364 5015 ft 277 kts 88°
2026-05-09 07:09 33.68644 130.49604 5732 ft 278 kts 117°
2026-05-09 07:10 33.67428 130.51408 6373 ft 282 kts 145°
2026-05-09 07:10 33.65742 130.52645 6886 ft 287 kts 152°
2026-05-09 07:10 33.63983 130.53815 7546 ft 291 kts 154°
2026-05-09 07:10 33.62142 130.54821 8335 ft 291 kts 159°
2026-05-09 07:11 33.60245 130.55747 8969 ft 297 kts 159°
2026-05-09 07:11 33.58311 130.56684 9623 ft 302 kts 159°
2026-05-09 07:11 33.56358 130.57640 10300 ft 306 kts 159°
2026-05-09 07:11 33.54331 130.58638 10557 ft 326 kts 159°
2026-05-09 07:12 33.52168 130.59712 10737 ft 348 kts 158°
2026-05-09 07:12 33.49856 130.60863 10908 ft 371 kts 158°
2026-05-09 07:12 33.47414 130.62084 11256 ft 387 kts 158°
2026-05-09 07:12 33.44916 130.63377 11731 ft 397 kts 154°
2026-05-09 07:13 33.42687 130.65384 12229 ft 407 kts 130°
2026-05-09 07:13 33.40968 130.68075 12802 ft 411 kts 127°
2026-05-09 07:13 33.39187 130.70797 13464 ft 419 kts 129°
2026-05-09 07:13 33.37332 130.73508 14211 ft 424 kts 129°
2026-05-09 07:14 33.35445 130.76241 14932 ft 428 kts 129°
2026-05-09 07:14 33.33549 130.79009 15620 ft 430 kts 127°
2026-05-09 07:14 33.32096 130.82143 16078 ft 437 kts 105°
2026-05-09 07:14 33.31628 130.85724 16699 ft 438 kts 87°
2026-05-09 07:15 33.32012 130.89318 17375 ft 434 kts 71°
2026-05-09 07:15 33.32908 130.92787 17855 ft 441 kts 68°
2026-05-09 07:15 33.33853 130.96311 18449 ft 448 kts 69°
2026-05-09 07:15 33.34765 130.99898 19007 ft 454 kts 69°
2026-05-09 07:16 33.35658 131.03544 19539 ft 460 kts 70°
2026-05-09 07:16 33.36552 131.07257 20025 ft 468 kts 70°
2026-05-09 07:16 33.37461 131.11020 20540 ft 474 kts 70°
2026-05-09 07:16 33.38467 131.14789 20952 ft 477 kts 63°
2026-05-09 07:17 33.40176 131.18144 21373 ft 469 kts 44°
2026-05-09 07:17 33.42350 131.21063 21738 ft 474 kts 42°
2026-05-09 07:17 33.44568 131.24040 22151 ft 481 kts 43°
2026-05-09 07:17 33.46783 131.27068 22744 ft 485 kts 43°
2026-05-09 07:18 33.49000 131.30135 23241 ft 491 kts 43°
2026-05-09 07:18 33.51235 131.33277 23634 ft 498 kts 44°
2026-05-09 07:18 33.53483 131.36470 24037 ft 504 kts 44°
2026-05-09 07:18 33.55748 131.39699 24434 ft 508 kts 44°
2026-05-09 07:19 33.58027 131.42952 24843 ft 512 kts 44°
2026-05-09 07:19 33.60328 131.46238 25267 ft 516 kts 44°
2026-05-09 07:19 33.62651 131.49553 25648 ft 521 kts 44°
2026-05-09 07:19 33.64993 131.52901 26017 ft 526 kts 44°
2026-05-09 07:20 33.67357 131.56283 26390 ft 531 kts 44°
2026-05-09 07:20 33.69740 131.59694 26753 ft 535 kts 44°
2026-05-09 07:20 33.72142 131.63127 27115 ft 539 kts 45°
2026-05-09 07:20 33.74570 131.66591 27459 ft 544 kts 45°
2026-05-09 07:21 33.77019 131.70085 27746 ft 549 kts 45°
2026-05-09 07:21 33.79486 131.73614 28073 ft 553 kts 45°
2026-05-09 07:21 33.81961 131.77165 28408 ft 556 kts 45°
2026-05-09 07:21 33.84451 131.80743 28719 ft 560 kts 45°
2026-05-09 07:22 33.86958 131.84351 29002 ft 565 kts 45°
2026-05-09 07:22 33.89487 131.87995 29233 ft 569 kts 45°
2026-05-09 07:22 33.92035 131.91669 29514 ft 572 kts 45°
2026-05-09 07:22 33.94582 131.95350 29900 ft 573 kts 45°
2026-05-09 07:23 33.97129 131.99034 30297 ft 573 kts 45°
2026-05-09 07:23 33.99667 132.02708 30670 ft 573 kts 45°
2026-05-09 07:23 34.02209 132.06396 31118 ft 571 kts 45°
2026-05-09 07:23 34.04743 132.10069 31490 ft 570 kts 45°
2026-05-09 07:24 34.07306 132.13711 31843 ft 569 kts 43°
2026-05-09 07:24 34.10057 132.17124 32258 ft 563 kts 36°
2026-05-09 07:24 34.12992 132.20213 32648 ft 558 kts 33°
2026-05-09 07:24 34.15958 132.23245 32883 ft 560 kts 33°
2026-05-09 07:25 34.18931 132.26291 33142 ft 561 kts 33°
2026-05-09 07:25 34.21895 132.29360 33469 ft 561 kts 34°
2026-05-09 07:25 34.24837 132.32452 33876 ft 560 kts 34°
2026-05-09 07:25 34.27760 132.35560 34182 ft 559 kts 34°
2026-05-09 07:26 34.30677 132.38668 34451 ft 559 kts 34°
2026-05-09 07:26 34.33597 132.41767 34693 ft 558 kts 34°
2026-05-09 07:26 34.36523 132.44857 34909 ft 559 kts 33°
2026-05-09 07:26 34.39457 132.47949 35149 ft 558 kts 33°
2026-05-09 07:27 34.42382 132.51037 35418 ft 558 kts 33°
2026-05-09 07:27 34.45305 132.54132 35638 ft 559 kts 33°
2026-05-09 07:27 34.48228 132.57238 35810 ft 560 kts 34°
2026-05-09 07:27 34.51161 132.60359 36020 ft 562 kts 34°
2026-05-09 07:28 34.54096 132.63488 36163 ft 561 kts 33°
2026-05-09 07:28 34.57023 132.66616 36490 ft 558 kts 34°
2026-05-09 07:28 34.59932 132.69730 36690 ft 558 kts 33°
2026-05-09 07:28 34.62853 132.72851 36749 ft 561 kts 34°
2026-05-09 07:29 34.68692 132.79107 36650 ft 558 kts 34°
2026-05-09 07:29 34.74538 132.85380 36764 ft 563 kts 34°
2026-05-09 07:30 34.77478 132.88544 36883 ft 565 kts 34°
2026-05-09 07:30 34.80422 132.91716 36992 ft 566 kts 34°
2026-05-09 07:30 34.86318 132.98087 37104 ft 567 kts 34°
2026-05-09 07:31 34.89285 133.01286 36853 ft 567 kts 34°
2026-05-09 07:31 34.92172 133.04410 37047 ft 561 kts 34°
2026-05-09 07:31 34.98040 133.10717 37102 ft 563 kts 34°
2026-05-09 07:32 35.03930 133.17056 37166 ft 567 kts 34°
2026-05-09 07:32 35.09831 133.23446 37092 ft 567 kts 34°
2026-05-09 07:33 35.18669 133.33063 37100 ft 567 kts 34°
2026-05-09 07:34 35.24559 133.39486 37117 ft 568 kts 34°
2026-05-09 07:34 35.30459 133.45927 37097 ft 569 kts 34°
2026-05-09 07:35 35.36374 133.52406 37129 ft 572 kts 34°
2026-05-09 07:35 35.42265 133.58871 37088 ft 557 kts 34°
2026-05-09 07:36 35.47994 133.65182 37107 ft 556 kts 34°
2026-05-09 07:36 35.53776 133.71529 37155 ft 560 kts 34°
2026-05-09 07:37 35.59608 133.77959 37142 ft 565 kts 34°
2026-05-09 07:37 35.65458 133.84434 37132 ft 567 kts 34°
2026-05-09 07:38 35.71302 133.90918 37134 ft 565 kts 34°
2026-05-09 07:38 35.77126 133.97388 37141 ft 564 kts 34°
2026-05-09 07:39 35.82951 134.03867 37129 ft 565 kts 34°
2026-05-09 07:39 35.88800 134.10389 37136 ft 568 kts 34°
2026-05-09 07:40 35.94674 134.16954 37132 ft 572 kts 34°
2026-05-09 07:40 36.00578 134.23571 37172 ft 574 kts 34°
2026-05-09 07:41 36.06478 134.30203 37118 ft 570 kts 34°
2026-05-09 07:41 36.12271 134.36739 37138 ft 557 kts 34°
2026-05-09 07:42 36.17988 134.43187 37128 ft 557 kts 34°
2026-05-09 07:42 36.23515 134.49926 37134 ft 555 kts 43°
2026-05-09 07:43 36.28105 134.57661 37128 ft 564 kts 53°
2026-05-09 07:43 36.32155 134.65976 37095 ft 555 kts 54°
2026-05-09 07:43 36.34109 134.70041 37106 ft 543 kts 54°
2026-05-09 07:44 36.36037 134.74030 37118 ft 539 kts 53°
2026-05-09 07:44 36.39944 134.82025 37128 ft 545 kts 53°
2026-05-09 07:45 36.43906 134.90105 37143 ft 551 kts 54°
2026-05-09 07:45 36.47912 134.98303 37130 ft 558 kts 54°
2026-05-09 07:46 36.51924 135.06549 37064 ft 550 kts 54°
2026-05-09 07:46 36.55859 135.14657 37094 ft 548 kts 54°
2026-05-09 07:47 36.59144 135.21426 37125 ft 552 kts 54°
2026-05-09 07:47 36.63133 135.29668 37129 ft 559 kts 54°
2026-05-09 07:48 36.67160 135.38019 37124 ft 566 kts 54°
2026-05-09 07:48 36.71225 135.46471 37121 ft 571 kts 54°
2026-05-09 07:49 36.75323 135.55013 37114 ft 577 kts 54°
2026-05-09 07:49 36.79447 135.63634 37115 ft 581 kts 55°
2026-05-09 07:50 36.83595 135.72328 37127 ft 585 kts 55°
2026-05-09 07:50 36.87771 135.81105 37109 ft 589 kts 55°
2026-05-09 07:51 36.91954 135.89926 37109 ft 591 kts 55°
2026-05-09 07:51 36.96141 135.98794 37106 ft 593 kts 55°
2026-05-09 07:52 37.00330 136.07661 37088 ft 589 kts 55°
2026-05-09 07:52 37.04454 136.16364 37045 ft 569 kts 55°
2026-05-09 07:53 37.08480 136.24883 37105 ft 571 kts 55°
2026-05-09 07:53 37.12525 136.33489 36985 ft 576 kts 55°
2026-05-09 07:54 37.16585 136.42179 37107 ft 580 kts 55°
2026-05-09 07:54 37.20623 136.50855 37065 ft 574 kts 55°
2026-05-09 07:55 37.24662 136.59535 37096 ft 578 kts 55°
2026-05-09 07:55 37.28693 136.68223 37105 ft 582 kts 56°
2026-05-09 07:56 37.32760 136.77013 37097 ft 584 kts 56°
2026-05-09 07:56 37.36858 136.85928 37074 ft 582 kts 56°
2026-05-09 07:57 37.40900 136.94690 37090 ft 578 kts 56°
2026-05-09 07:57 37.44925 137.03442 37087 ft 581 kts 56°
2026-05-09 07:58 37.48977 137.12298 37089 ft 583 kts 56°
2026-05-09 07:58 37.53018 137.21161 37075 ft 584 kts 56°
2026-05-09 07:59 37.57026 137.29973 37071 ft 584 kts 56°
2026-05-09 07:59 37.61056 137.38851 37084 ft 583 kts 56°
2026-05-09 08:00 37.65080 137.47741 37066 ft 583 kts 56°
2026-05-09 08:00 37.69089 137.56622 37073 ft 582 kts 56°
2026-05-09 08:01 37.73082 137.65496 37067 ft 581 kts 56°
2026-05-09 08:01 37.77091 137.74430 37056 ft 580 kts 56°
2026-05-09 08:02 37.81056 137.83292 37059 ft 580 kts 56°
2026-05-09 08:02 37.85019 137.92179 37060 ft 580 kts 57°
2026-05-09 08:03 37.88965 138.01066 37058 ft 581 kts 57°
2026-05-09 08:03 37.92924 138.10002 37056 ft 582 kts 57°
2026-05-09 08:04 37.96892 138.18942 37054 ft 582 kts 57°
2026-05-09 08:04 38.00843 138.27905 37065 ft 582 kts 57°
2026-05-09 08:05 38.04998 138.36624 37047 ft 576 kts 46°
2026-05-09 08:05 38.10431 138.43907 37053 ft 563 kts 33°
2026-05-09 08:05 38.13507 138.46913 37036 ft 551 kts 24°
2026-05-09 08:06 38.16722 138.49529 37062 ft 547 kts 24°
2026-05-09 08:06 38.23153 138.54616 37028 ft 542 kts 23°
2026-05-09 08:07 38.29545 138.59743 37034 ft 545 kts 24°
2026-05-09 08:07 38.35893 138.64945 37034 ft 548 kts 24°
2026-05-09 08:08 38.42292 138.70240 37029 ft 549 kts 24°
2026-05-09 08:08 38.48701 138.75556 37031 ft 550 kts 25°
2026-05-09 08:09 38.55145 138.80905 37034 ft 548 kts 25°
2026-05-09 08:09 38.61477 138.86166 37007 ft 545 kts 25°
2026-05-09 08:10 38.67815 138.91443 37001 ft 542 kts 25°
2026-05-09 08:10 38.74125 138.96704 37003 ft 542 kts 25°
2026-05-09 08:11 38.80435 139.01978 37000 ft 539 kts 25°
2026-05-09 08:11 38.86689 139.07224 37011 ft 536 kts 25°
2026-05-09 08:12 38.96079 139.15106 37000 ft 540 kts 25°
2026-05-09 08:12 39.02371 139.20406 37020 ft 541 kts 25°
2026-05-09 08:13 39.08666 139.25724 36998 ft 541 kts 25°
2026-05-09 08:13 39.14947 139.31043 36976 ft 539 kts 25°
2026-05-09 08:14 39.21199 139.36346 36985 ft 537 kts 25°
2026-05-09 08:14 39.27424 139.41636 36976 ft 535 kts 25°
2026-05-09 08:15 39.33623 139.46915 36977 ft 533 kts 25°
2026-05-09 08:15 39.39822 139.52204 36982 ft 535 kts 26°
2026-05-09 08:16 39.46033 139.57518 36983 ft 536 kts 26°
2026-05-09 08:16 39.52253 139.62853 36984 ft 537 kts 26°
2026-05-09 08:17 39.58480 139.68207 36973 ft 537 kts 26°
2026-05-09 08:17 39.64705 139.73574 36974 ft 537 kts 26°
2026-05-09 08:18 39.70888 139.78918 36981 ft 537 kts 26°
2026-05-09 08:18 39.77089 139.84300 36964 ft 535 kts 26°
2026-05-09 08:19 39.83278 139.89667 36965 ft 534 kts 26°
2026-05-09 08:19 39.89439 139.95042 36955 ft 532 kts 27°
2026-05-09 08:20 39.95573 140.00434 36961 ft 532 kts 27°
2026-05-09 08:20 40.01710 140.05851 36994 ft 534 kts 27°
2026-05-09 08:21 40.07850 140.11286 36948 ft 531 kts 27°
2026-05-09 08:21 40.13939 140.16689 36951 ft 529 kts 27°
2026-05-09 08:22 40.20042 140.22104 36945 ft 532 kts 27°
2026-05-09 08:22 40.26176 140.27566 36949 ft 534 kts 27°
2026-05-09 08:23 40.32322 140.33049 36953 ft 536 kts 28°
2026-05-09 08:23 40.38483 140.38565 36942 ft 536 kts 28°
2026-05-09 08:24 40.44624 140.44077 36930 ft 534 kts 28°
2026-05-09 08:24 40.50737 140.49573 36960 ft 531 kts 28°
2026-05-09 08:25 40.56834 140.55065 36932 ft 530 kts 28°
2026-05-09 08:25 40.62907 140.60561 36930 ft 529 kts 28°
2026-05-09 08:26 40.68993 140.66075 36908 ft 532 kts 28°
2026-05-09 08:26 40.75262 140.71061 36875 ft 519 kts 19°
2026-05-09 08:27 40.78531 140.72958 36619 ft 508 kts 13°
2026-05-09 08:27 40.81842 140.74518 36078 ft 504 kts 11°
2026-05-09 08:27 40.85167 140.76045 35346 ft 507 kts 12°
2026-05-09 08:27 40.88498 140.77630 34633 ft 510 kts 13°
2026-05-09 08:28 40.91830 140.79258 33961 ft 511 kts 13°
2026-05-09 08:28 40.95163 140.80901 33267 ft 511 kts 14°
2026-05-09 08:28 40.98467 140.82540 32765 ft 504 kts 14°
2026-05-09 08:28 41.01738 140.84168 32186 ft 500 kts 15°
2026-05-09 08:29 41.04993 140.85788 31480 ft 499 kts 15°
2026-05-09 08:29 41.08236 140.87401 30778 ft 498 kts 15°
2026-05-09 08:29 41.11478 140.89014 30121 ft 496 kts 16°
2026-05-09 08:29 41.14695 140.90618 29464 ft 491 kts 16°
2026-05-09 08:30 41.17856 140.92197 28918 ft 484 kts 16°
2026-05-09 08:30 41.20988 140.93764 28378 ft 478 kts 17°
2026-05-09 08:30 41.24077 140.95322 27885 ft 471 kts 16°
2026-05-09 08:30 41.26101 140.96332 27543 ft 467 kts 16°
2026-05-09 08:31 41.29126 140.97836 27051 ft 461 kts 16°
2026-05-09 08:31 41.33061 140.99794 26817 ft 445 kts 16°
2026-05-09 08:31 41.35946 141.01210 26332 ft 440 kts 16°
2026-05-09 08:31 41.37843 141.02139 25942 ft 439 kts 16°
2026-05-09 08:32 41.40683 141.03526 25318 ft 431 kts
2026-05-09 08:32 41.43556 141.03860 24361 ft 410 kts 348°
2026-05-09 08:32 41.49142 141.05246 22775 ft 429 kts 29°
2026-05-09 08:33 41.51519 141.07626 22319 ft 425 kts 32°
2026-05-09 08:33 41.53962 141.09761 22023 ft 412 kts 24°
2026-05-09 08:33 41.56505 141.11369 22203 ft 402 kts 18°
2026-05-09 08:33 41.59138 141.12734 22298 ft 409 kts 15°
2026-05-09 08:34 41.61828 141.14030 21792 ft 413 kts 15°
2026-05-09 08:34 41.64513 141.15323 21394 ft 407 kts 15°
2026-05-09 08:34 41.67163 141.16622 20791 ft 406 kts 15°
2026-05-09 08:34 41.69819 141.17940 20117 ft 407 kts 16°
2026-05-09 08:35 41.72464 141.19271 19606 ft 404 kts 16°
2026-05-09 08:35 41.75077 141.20594 19159 ft 400 kts 16°
2026-05-09 08:35 41.77657 141.21906 18813 ft 393 kts 15°
2026-05-09 08:35 41.80198 141.23198 18368 ft 389 kts 15°
2026-05-09 08:36 41.82723 141.24483 17824 ft 387 kts 15°
2026-05-09 08:36 41.85222 141.25753 17485 ft 380 kts 15°
2026-05-09 08:36 41.87666 141.26994 17204 ft 372 kts 15°
2026-05-09 08:36 41.90063 141.28212 16834 ft 366 kts 15°
2026-05-09 08:37 41.92434 141.29414 16370 ft 363 kts 15°
2026-05-09 08:37 41.94758 141.30687 15815 ft 362 kts 21°
2026-05-09 08:37 41.96942 141.32411 15292 ft 366 kts 28°
2026-05-09 08:37 41.98959 141.34484 14916 ft 365 kts 36°
2026-05-09 08:38 42.00807 141.36827 14870 ft 364 kts 37°
2026-05-09 08:38 42.02608 141.39161 14813 ft 354 kts 37°
2026-05-09 08:38 42.04342 141.41413 14787 ft 340 kts 37°
2026-05-09 08:38 42.06031 141.43597 14401 ft 338 kts 37°
2026-05-09 08:39 42.07748 141.45806 13694 ft 345 kts 37°
2026-05-09 08:39 42.09482 141.48040 13146 ft 337 kts 37°
2026-05-09 08:39 42.11101 141.50138 12919 ft 309 kts 36°
2026-05-09 08:39 42.12605 141.52046 12618 ft 285 kts 31°
2026-05-09 08:40 42.14227 141.53320 12072 ft 261 kts 13°
2026-05-09 08:40 42.15900 141.54176 11427 ft 254 kts 13°
2026-05-09 08:40 42.17535 141.55039 10797 ft 250 kts 13°
2026-05-09 08:40 42.19137 141.55897 10194 ft 243 kts 13°
2026-05-09 08:41 42.20622 141.56708 10048 ft 225 kts 13°
2026-05-09 08:41 42.22055 141.57486 9584 ft 219 kts 12°
2026-05-09 08:41 42.23457 141.58249 8906 ft 217 kts 12°
2026-05-09 08:41 42.24860 141.59014 8154 ft 218 kts 13°
2026-05-09 08:42 42.26273 141.59788 7405 ft 220 kts 13°
2026-05-09 08:42 42.27696 141.60571 6668 ft 222 kts 13°
2026-05-09 08:42 42.29126 141.61343 5986 ft 220 kts 13°
2026-05-09 08:42 42.30542 141.62101 5315 ft 218 kts 13°
2026-05-09 08:43 42.31943 141.62850 4671 ft 216 kts 13°
2026-05-09 08:43 42.33336 141.63594 3963 ft 215 kts 13°
2026-05-09 08:43 42.34736 141.64338 3245 ft 218 kts 13°
2026-05-09 08:43 42.36154 141.65081 2546 ft 219 kts 13°
2026-05-09 08:44 42.37578 141.65818 2290 ft 220 kts 12°
2026-05-09 08:44 42.38999 141.66570 2119 ft 219 kts 13°
2026-05-09 08:44 42.40397 141.67314 2000 ft 210 kts 13°
2026-05-09 08:44 42.41721 141.68031 1973 ft 201 kts 13°
2026-05-09 08:45 42.43020 141.68739 2008 ft 204 kts 13°
2026-05-09 08:45 42.44360 141.69457 2013 ft 210 kts 13°
2026-05-09 08:45 42.45724 141.70178 2005 ft 210 kts 13°
2026-05-09 08:45 42.47082 141.70891 1976 ft 209 kts 13°
2026-05-09 08:46 42.48413 141.71584 1994 ft 207 kts 13°
2026-05-09 08:46 42.49773 141.72293 1984 ft 206 kts 13°
2026-05-09 08:46 42.51104 141.72991 1997 ft 205 kts 13°
2026-05-09 08:46 42.52437 141.73693 1996 ft 205 kts 13°
2026-05-09 08:47 42.53786 141.74206 2001 ft 197 kts 353°
2026-05-09 08:47 42.55060 141.73727 1994 ft 191 kts 333°
2026-05-09 08:47 42.56321 141.73139 2001 ft 194 kts 342°
2026-05-09 08:47 42.57617 141.72754 1980 ft 187 kts 345°
2026-05-09 08:48 42.58880 141.72473 1989 ft 181 kts 346°
2026-05-09 08:48 42.60091 141.72240 1979 ft 172 kts 346°
2026-05-09 08:48 42.61249 141.72028 2021 ft 161 kts 346°
2026-05-09 08:48 42.62351 141.71824 2027 ft 162 kts 347°
2026-05-09 08:49 42.63475 141.71620 2004 ft 162 kts 347°
2026-05-09 08:49 42.64541 141.71426 1972 ft 148 kts 346°
2026-05-09 08:49 42.65510 141.71247 1981 ft 134 kts 346°
2026-05-09 08:49 42.66422 141.71080 2003 ft 131 kts 346°
2026-05-09 08:50 42.67293 141.70921 1926 ft 125 kts 345°
2026-05-09 08:50 42.68148 141.70765 1747 ft 124 kts 343°
2026-05-09 08:50 42.69011 141.70607 1576 ft 126 kts 343°
2026-05-09 08:50 42.69884 141.70448 1408 ft 127 kts 344°
2026-05-09 08:51 42.70765 141.70288 1217 ft 129 kts 345°
2026-05-09 08:51 42.71653 141.70126 1026 ft 130 kts 345°
2026-05-09 08:51 42.72532 141.69967 825 ft 122 kts 343°
2026-05-09 08:51 42.73368 141.69812 682 ft 124 kts 344°
2026-05-09 08:52 42.74234 141.69655 527 ft 127 kts 345°
2026-05-09 08:52 42.75100 141.69491 352 ft 126 kts 343°
2026-05-09 08:52 42.75948 141.69338 175 ft 119 kts 345°
2026-05-09 08:52 42.76757 141.69186 89 ft 111 kts 342°
2026-05-09 08:53 42.77422 141.69040 88 ft 47 kts 354°
2026-05-09 08:53 42.77716 141.68974 85 ft 49 kts 348°
2026-05-09 08:53 42.77932 141.68840 89 ft 29 kts 325°
2026-05-09 08:53 42.78036 141.68573 87 ft 29 kts 304°
2026-05-09 08:54 42.78228 141.68404 88 ft 39 kts 319°
2026-05-09 08:54 42.78390 141.68113 88 ft 23 kts 319°
2026-05-09 08:54 42.78460 141.68056 86 ft 0 kts 334°